Regional Weather Roundup
Issued by NWS

Home | Current Version | Previous Version | Graphics & Text | Print | Product List | Glossary On
Versions: 1 2 3 4 5 6 7 8 9 10 11 12 13 14 15 16 17 18 19 20 21 22 23 24 25 26 27 28 29 30 31 32 33 34 35 36 37 38 39 40 41 42 43 44 45 46 47 48 49 50
000
ASUS45 KBOU 240507
RWRCO

WEATHER ROUNDUP FOR COLORADO
NATIONAL WEATHER SERVICE DENVER/BOULDER CO
1100 PM MDT WED AUG 23 2017

NOTE: "FAIR" INDICATES FEW OR NO CLOUDS BELOW 12000 FEET WITH NO
SIGNIFICANT WEATHER AND/OR OBSTRUCTIONS TO VISIBILITY.

COZ001>005-013-030-031-240600-
...NORTHWEST COLORADO...

CITY           SKY/WX    TMP DP  RH WIND       PRES   REMARKS
CRAIG          FAIR      58  43  57 CALM      30.21S
HAYDEN         FAIR      59  44  57 E8        30.25F
MEEKER         FAIR      60  43  53 E5        30.21S
RABBIT EARS PA FAIR      48  37  66 E7        30.51F
STEAMBOAT SPGS FAIR      54  44  68 CALM      30.27S
WALDEN         FAIR      45  39  81 SE5       30.37F
$$

COZ006>008-011-240600-
...WEST CENTRAL VALLEYS...

CITY           SKY/WX    TMP DP  RH WIND       PRES   REMARKS
GRAND JUNCTION FAIR      80  36  20 VRB6      30.04S
MONTROSE       FAIR      67  42  40 SE12      30.15S
EAGLE          FAIR      62  42  47 CALM      30.28R
RIFLE          FAIR      67  45  45 SE9       30.14R
DELTA          FAIR      71  35  26 N6        30.09S
NUCLA          FAIR      68  34  28 E9        30.18R
$$

COZ017>023-064>068-240600-
...SOUTHWEST COLORADO...

CITY           SKY/WX    TMP DP  RH WIND       PRES   REMARKS
DURANGO        FAIR      62  39  42 N8        30.21S
CORTEZ         FAIR      65  45  48 E6        30.15R
PAGOSA SPRINGS FAIR      57  42  55 CALM      30.30R
TELLURIDE      FAIR      56  37  48 CALM      30.43R
WOLF CREEK PAS FAIR      50  34  53 CALM      30.66F
$$

COZ009-010-012-014-032>034-037-058>063-240600-
...CENTRAL COLORADO...

CITY           SKY/WX    TMP DP  RH WIND       PRES   REMARKS
ASPEN          FAIR      55  42  61 SW9       30.31S
BUENA VISTA    FAIR      55  43  65 NW6       30.36S
COPPER MTN     FAIR      52  34  50 CALM      30.64R
BERTHOUD PASS  FAIR      39  34  81 NW12      30.66R
COTTONWOOD PAS FAIR      57  37  47 SW6       30.49S
GUNNISON       FAIR      55  39  54 NW9       30.30S
KREMMLING      FAIR      55  45  67 S5        30.35S
LEADVILLE      FAIR      45  39  79 CALM      30.47R
MONARCH PASS   FAIR      45  37  76 E18       30.70F
SALIDA         FAIR      59  45  59 W6        30.40S
SUNLIGHT       FAIR      46  32  57 NE6       30.56S
WILKERSON PASS CLOUDY    48  36  61 NE3       30.62R
$$

COZ069>075-240600-
...SAN LUIS VALLEY/SANGRE DE CRISTO MOUNTAINS...

CITY           SKY/WX    TMP DP  RH WIND       PRES   REMARKS
ALAMOSA        FAIR      62  45  53 E13       30.28S
DEL NORTE      FAIR      60  43  54 W6        30.33S
LA VETA PASS   NOT AVBL
SAGUACHE         N/A    N/A N/A N/A MISG        N/A
$$

COZ035-036-038>040-240600-
...NORTHERN COLORADO FRONT RANGE...

CITY           SKY/WX    TMP DP  RH WIND       PRES   REMARKS
DENVER INTL AP MOCLDY    68  45  43 VRB3      30.15F
DMNS CITY PARK   N/A     67  46  47 S5        30.14F
AURORA         MOCLDY    63  47  55 S7        30.18S
FRONT RANGE AP FAIR      66  48  52 CALM      30.18S
ERIE MUNI ARPT FAIR      61  48  61 CALM      30.19S
BOULDER MUN AP FAIR      66  43  42 S6        30.14S
CENTENNIAL     FAIR      62  46  55 E6        30.19S
BROOMFIELD     FAIR      61  45  55 W7        30.17F
FORT COLLINS   FAIR      67  48  50 S7        30.12S
LONGMONT       FAIR      65  49  55 SW5       30.15S
$$

COZ041-046-047-076>085-087-088-240600-
...PIKES PEAK/PALMER DIVIDE AND SOUTHERN FOOTHILLS...

CITY           SKY/WX    TMP DP  RH WIND       PRES   REMARKS
COLO. SPRINGS  MOCLDY    65  48  54 NE12      30.24S
A. F. ACADEMY  FAIR      57  49  74 CALM      30.26S
SCHRIEVER AFB  FAIR      61  48  62 N8        30.23F
CHEYENNE MTN   MOCLDY    63  45  53 NW10      30.24R
ELLICOTT       FAIR     N/A N/A N/A E8        30.22R THUNDER
FALCON         FAIR      60  45  57 N7        30.29F
FORT CARSON    FAIR      63  50  62 NW10      30.21R
LIMON          FAIR      62  51  67 NW6       30.17S
MONUMENT HILL  MOCLDY    55  48  76 S8        30.29F
CANON CITY     CLEAR     70  54  56 CALM      30.17R
WALSENBURG     FAIR      63  55  77 W12       30.21F
TRINIDAD       LGT RAIN  61  54  77 S10       30.22R
$$

COZ042>045-048>051-090-091-240600-
...NORTHEAST COLORADO...

CITY           SKY/WX    TMP DP  RH WIND       PRES   REMARKS
GREELEY ARPT   FAIR      66  52  60 S6        30.12R
AKRON          FAIR      71  49  45 SW13      30.07F
BURLINGTON     FAIR      67  61  81 S14       30.09S
WRAY           FAIR      70  55  60 S6        30.03F
YUMA           FAIR      68  41  37 W7        30.06S
STERLING       FAIR      64  55  72 CALM      30.03F
HOLYOKE        FAIR      63  59  88 S3        30.03S
FORT MORGAN    FAIR      67  51  55 W5        30.08F
$$

COZ086-089-092>099-240600-
...SOUTHEAST COLORADO...

CITY           SKY/WX    TMP DP  RH WIND       PRES   REMARKS
PUEBLO         FAIR      74  53  48 N15G23    30.10F
LA JUNTA       FAIR      74  61  63 SE6       30.06F
LAMAR          FAIR      70  61  73 S8        30.05S
SPRINGFIELD      N/A     62  62 100 S7        30.14R
$$



USA.gov is the U.S. government's official web portal to all federal, state and local government web resources and services.